Skip Page Navigation
NASA JPL Caltech
NASA Logo - Jet Propulsion Laboratory + View the NASA Portal
+ Center for Near-Earth Object Studies
JPL Home Earth Solar System Stars & Galaxies Technology
JPL Solar System Dynamics
BODIES ORBITS EPHEMERIDES TOOLS PHYSICAL DATA DISCOVERY FAQ SITE MAP
JPL Small-Body Database Browser
Search: [ help ]  
193077 (2000 GV30)
Classification: Main-belt Asteroid          SPK-ID: 2193077
Ephemeris | Orbit Diagram | Orbital Elements | Mission Design | Physical Parameters | Discovery Circumstances | Close-Approach Data ]

[ show orbit diagram ]
Orbital Elements at Epoch 2459000.5 (2020-May-31.0) TDB
Reference: JPL 10 (heliocentric ecliptic J2000)
 Element Value Uncertainty (1-sigma)   Units 
e .1716182786486108 6.5529e-08  
a 2.274097139284628 1.2558e-08 au
q 1.88382050276087 1.5051e-07 au
i 2.78863195502769 8.41e-06 deg
node 20.87524637335233 0.00014964 deg
peri 190.7998245236006 0.00015142 deg
M 305.7667451251267 2.4414e-05 deg
tp 2459189.201396339445
(2020-Dec-05.70139634)
8.5546e-05 TDB
period 1252.598665503918
3.43
1.0376e-05
2.841e-08
d
yr
n .2874025096100296 2.3807e-09 deg/d
Q 2.664373775808385 1.4713e-08 au
  Orbit Determination Parameters
   # obs. used (total)      197  
   data-arc span      7224 days (19.78 yr)  
   first obs. used      2000-03-25  
   last obs. used      2020-01-04  
   planetary ephem.      DE431  
   SB-pert. ephem.      SB431-N16  
   condition code      0  
   norm. resid. RMS      .60611  
   source      ORB  
   producer      Otto Matic  
   solution date      2020-Jan-29 23:07:51  

Additional Information
 Earth MOID = .878159 au 
 Jupiter MOID = 2.30089 au 
 T_jup = 3.589 
[ show covariance matrix ]

Ephemeris | Orbit Diagram | Orbital Elements | Mission Design | Physical Parameters | Discovery Circumstances | Close-Approach Data ]

Physical Parameter Table
Parameter Symbol Value Units Sigma Reference Notes
absolute magnitude H 17.5   n/a MPO454339  

193077 (2000 GV30)          Discovered 2000-Apr-05 by LINEAR at Socorro
Reference: 20081113/Numbers.arcLast Updated: 2008-11-17

[ hide close-approach data ]
Close-Approach Data   ...sorted by Date/Time (TDB)
Date/Time (TDB) Time Uncertainty
(days_HH:MM)
Body Nominal Distance (au) Minimum Distance (au) Maximum Distance (au) V-relative (km/s) V-infinity (km/s) JD (TDB) Time Uncertainty (minutes) Semi-major axis (km) Semi-minor axis (km) range-LOV angle (deg) N-sigma BP Orbit Ref. Reference Modified
2035-Sep-25 10:33 < 00:01 Amphi 0.0244723741314939 0.0244624382899112 0.0244823123141558 4.44628409574786 4.44628404291553 2464595.939376803 0.937650581686244 627.547271494997 100.374281415491 38.4617522554107 23131.126950923 T 10 CATAB v2.0f-lin.ifort 2020-Jan-29 23:07:57 2020-Jan-29 23:08
2050-Nov-23 21:32 < 00:01 Eunom 0.0441790655164592 0.0441636748300135 0.0441944567009906 7.93121983284745 7.93121979278501 2470134.397433680 0.652652936453856 802.69298424975 95.0537710413951 17.2024153766345 22009.2728216522 T 10 CATAB v2.0f-lin.ifort 2020-Jan-29 23:07:57 2020-Jan-29 23:08
2124-Dec-23 04:00 00:07 Psych 0.0495196823647552 0.0494783263295934 0.0495610390210327 4.73992906482885 4.73992901328184 2497191.666498052 6.80875941764844 2079.78800210012 98.6168948763629 -7.68630199558607 10641.2319212669 T 10 CATAB v2.0f-lin.ifort 2020-Jan-29 23:07:57 2020-Jan-29 23:08
Ephemeris | Orbit Diagram | Orbital Elements | Mission Design | Physical Parameters | Discovery Circumstances | Close-Approach Data ]
ABOUT SSD CREDITS/AWARDS PRIVACY/COPYRIGHT GLOSSARY LINKS
FirstGov 2020-Jul-15 06:44 UT
(server date/time)  
NASA Home Page
Site Manager:   Ryan S. Park
Webmaster  Alan B. Chamberlin